Cambridge, MD

9:19 PM EDT on September 25, 2017 (GMT -0400)
Cambridge-Dorchester

Weather History for KCGE - April, 2013

Change the Weather History Date:

Monday, April 29, 2013

  Actual Average (KESN) Record (KESN)
Temperature  
Mean Temperature 53 °F -  
Max Temperature 55 °F 69 °F 89 °F (1974)
Min Temperature 51 °F 45 °F 35 °F (1949)
Degree Days  
Heating Degree Days 12    
Growing Degree Days 3 (Base 50)    
Moisture  
Dew Point 52 °F    
Average Humidity 94    
Maximum Humidity 100    
Minimum Humidity 77    
Precipitation  
Precipitation 0.00 in - - ()
Sea Level Pressure  
Sea Level Pressure 30.11 in    
Wind  
Wind Speed 6 mph (ESE)    
Max Wind Speed 18 mph    
Max Gust Speed 22 mph    
Visibility 5 miles    
Events      
Averages and records for this station are not official NWS values.
T = Trace of Precipitation, MM = Missing Value Source: NWS Daily Summary

Daily Weather History Graph

Daily Weather History Graph

Search for Another Location

Airport or City:

Trip Planner

Search our weather history database for the weather conditions in past years. The results will help you decide how hot, cold, wet, or windy it might be!

Date:

Astronomy

Apr. 29, 2013 Rise Set
Actual Time 6:09 AM EDT 7:54 PM EDT
Civil Twilight 5:40 AM EDT 8:22 PM EDT
Nautical Twilight 5:06 AM EDT 8:57 PM EDT
Astronomical Twilight 4:29 AM EDT 9:34 PM EDT
Moon No Moon Rise 9:28 AM EDT (4/29)
Length of Visible Light 14h 42m
Length of Day
13h 45m
Waning Gibbous, 80% of the Moon is Illuminated
Apr 29
Waning Gibbous
May 2
Last Quarter
May 9
New
May 18
First Quarter
May 25
Full

Hourly Weather History & Observations

Time (EDT) Temp. Dew Point Humidity Pressure Visibility Wind Dir Wind Speed Gust Speed Precip Events Conditions
12:14 AM 53.6 °F 46.4 °F 77% 30.19 in 10.0 mi ESE 3.5 mph - N/A   Overcast
12:34 AM 53.6 °F 46.4 °F 77% 30.19 in 10.0 mi Calm Calm - N/A   Mostly Cloudy
12:54 AM 51.8 °F 46.4 °F 82% 30.18 in 5.0 mi ESE 3.5 mph - N/A   Overcast
1:14 AM 51.8 °F 48.2 °F 88% 30.18 in 7.0 mi Calm Calm - N/A   Overcast
1:34 AM 51.8 °F 50.0 °F 94% 30.17 in 7.0 mi East 5.8 mph - N/A   Overcast
1:55 AM 51.8 °F 48.2 °F 88% 30.16 in 7.0 mi East 5.8 mph - N/A   Overcast
2:15 AM 51.8 °F 50.0 °F 94% 30.16 in 5.0 mi Calm Calm - N/A   Overcast
2:35 AM 51.8 °F 50.0 °F 94% 30.16 in 5.0 mi Calm Calm - N/A   Overcast
2:55 AM 51.8 °F 50.0 °F 94% 30.15 in 7.0 mi Calm Calm - N/A   Overcast
3:15 AM 51.8 °F 50.0 °F 94% 30.15 in 5.0 mi Calm Calm - N/A   Overcast
3:35 AM 51.8 °F 50.0 °F 94% 30.15 in 5.0 mi Calm Calm - N/A   Overcast
3:55 AM 51.8 °F 50.0 °F 94% 30.15 in 4.0 mi Calm Calm - N/A   Overcast
4:15 AM 51.8 °F 50.0 °F 94% 30.14 in 4.0 mi East 3.5 mph - N/A   Overcast
4:35 AM 51.8 °F 50.0 °F 94% 30.14 in 4.0 mi East 4.6 mph - N/A   Overcast
4:55 AM 51.8 °F 50.0 °F 94% 30.13 in 4.0 mi East 4.6 mph - N/A   Overcast
5:15 AM 53.6 °F 51.8 °F 94% 30.13 in 4.0 mi East 3.5 mph - N/A   Overcast
5:35 AM 53.6 °F 51.8 °F 94% 30.12 in 3.0 mi East 5.8 mph - N/A   Overcast
5:55 AM 53.6 °F 51.8 °F 94% 30.12 in 4.0 mi East 6.9 mph - N/A   Overcast
6:15 AM 53.6 °F 51.8 °F 94% 30.12 in 4.0 mi East 5.8 mph - N/A   Overcast
6:35 AM 53.6 °F 51.8 °F 94% 30.12 in 3.0 mi ESE 6.9 mph - N/A   Overcast
6:55 AM 53.6 °F 51.8 °F 94% 30.13 in 4.0 mi ESE 8.1 mph - N/A   Overcast
7:15 AM 53.6 °F 51.8 °F 94% 30.13 in 5.0 mi ESE 8.1 mph - N/A   Overcast
7:35 AM 53.6 °F 51.8 °F 94% 30.13 in 4.0 mi ESE 9.2 mph - N/A   Overcast
7:55 AM 53.6 °F 51.8 °F 94% 30.13 in 5.0 mi ESE 9.2 mph - N/A   Overcast
8:15 AM 53.6 °F 51.8 °F 94% 30.13 in 4.0 mi ESE 6.9 mph - N/A   Overcast
8:35 AM 55.4 °F 53.6 °F 94% 30.13 in 5.0 mi SE 9.2 mph - N/A   Overcast
8:55 AM 55.4 °F 55.4 °F 100% 30.12 in 7.0 mi SE 10.4 mph - N/A   Overcast
9:15 AM 55.4 °F 55.4 °F 100% 30.12 in 5.0 mi SSE 11.5 mph - N/A   Overcast
9:35 AM 55.4 °F 55.4 °F 100% 30.12 in 5.0 mi SSE 11.5 mph 18.4 mph N/A   Overcast
9:55 AM 55.4 °F 55.4 °F 100% 30.12 in 5.0 mi SSE 11.5 mph 18.4 mph N/A   Overcast
10:16 AM 55.4 °F 53.6 °F 94% 30.12 in 7.0 mi SSE 10.4 mph - N/A   Overcast
10:36 AM 55.4 °F 53.6 °F 94% 30.12 in 7.0 mi SSE 12.7 mph - N/A   Overcast
10:56 AM 55.4 °F 53.6 °F 94% 30.12 in 7.0 mi SSE 12.7 mph 18.4 mph N/A   Overcast
11:16 AM 55.4 °F 53.6 °F 94% 30.12 in 7.0 mi SSE 12.7 mph 17.3 mph N/A   Overcast
11:36 AM 55.4 °F 53.6 °F 94% 30.12 in 7.0 mi SE 15.0 mph - N/A   Overcast
11:56 AM 55.4 °F 53.6 °F 94% 30.12 in 7.0 mi SSE 11.5 mph 18.4 mph N/A   Overcast
12:16 PM 55.4 °F 53.6 °F 94% 30.11 in 5.0 mi SE 12.7 mph - N/A   Overcast
12:36 PM 55.4 °F 53.6 °F 94% 30.11 in 5.0 mi SE 9.2 mph - N/A   Overcast
12:53 PM 55.4 °F 53.6 °F 94% 30.10 in 5.0 mi SE 9.2 mph - N/A   Overcast
1:16 PM 55.4 °F 53.6 °F 94% 30.10 in 5.0 mi SE 9.2 mph - N/A   Overcast
1:36 PM 55.4 °F 53.6 °F 94% 30.10 in 4.0 mi SE 10.4 mph - N/A   Overcast
1:56 PM 55.4 °F 53.6 °F 94% 30.09 in 5.0 mi SE 11.5 mph - N/A   Overcast
2:16 PM 55.4 °F 53.6 °F 94% 30.10 in 5.0 mi SSE 18.4 mph 21.9 mph N/A   Overcast
2:36 PM 55.4 °F 53.6 °F 94% 30.09 in 5.0 mi SE 11.5 mph - N/A   Overcast
2:56 PM 55.4 °F 53.6 °F 94% 30.09 in 5.0 mi SE 13.8 mph - N/A   Overcast
3:16 PM 55.4 °F 53.6 °F 94% 30.08 in 5.0 mi SE 12.7 mph - N/A   Overcast
3:36 PM 55.4 °F 53.6 °F 94% 30.08 in 2.5 mi ESE 10.4 mph - N/A   Overcast
3:56 PM 55.4 °F 53.6 °F 94% 30.07 in 4.0 mi ESE 17.3 mph 21.9 mph N/A   Overcast
4:16 PM 55.4 °F 53.6 °F 94% 30.07 in 3.0 mi SE 12.7 mph 18.4 mph N/A   Overcast
4:36 PM 55.4 °F 53.6 °F 94% 30.07 in 2.5 mi SE 10.4 mph - N/A   Overcast
4:56 PM 55.4 °F 53.6 °F 94% 30.07 in 1.8 mi ESE 11.5 mph - N/A   Overcast
5:16 PM 53.6 °F 51.8 °F 94% 30.07 in 1.8 mi ESE 9.2 mph 16.1 mph N/A   Overcast
5:36 PM 53.6 °F 51.8 °F 94% 30.07 in 2.0 mi ESE 13.8 mph 20.7 mph N/A   Overcast
5:56 PM 53.6 °F 51.8 °F 94% 30.07 in 4.0 mi ESE 12.7 mph 19.6 mph N/A   Overcast
6:16 PM 53.6 °F 51.8 °F 94% 30.07 in 1.8 mi ESE 12.7 mph 19.6 mph N/A   Overcast
6:36 PM 53.6 °F 51.8 °F 94% 30.06 in 1.8 mi ESE 11.5 mph 18.4 mph N/A   Overcast
6:57 PM 53.6 °F 51.8 °F 94% 30.07 in 3.0 mi East 10.4 mph 17.3 mph N/A   Overcast
7:17 PM 53.6 °F 51.8 °F 94% 30.07 in 2.0 mi ESE 12.7 mph 21.9 mph N/A   Overcast
7:37 PM 53.6 °F 51.8 °F 94% 30.07 in 1.5 mi East 12.7 mph - N/A   Overcast
7:57 PM 53.6 °F 51.8 °F 94% 30.08 in 3.0 mi East 9.2 mph 17.3 mph N/A   Overcast
8:17 PM 53.6 °F 51.8 °F 94% 30.08 in 4.0 mi East 8.1 mph - N/A   Overcast
8:37 PM 53.6 °F 51.8 °F 94% 30.08 in 4.0 mi East 5.8 mph - N/A   Overcast
8:57 PM 53.6 °F 51.8 °F 94% 30.08 in 3.0 mi East 8.1 mph - N/A   Overcast
9:17 PM 53.6 °F 51.8 °F 94% 30.09 in 4.0 mi East 8.1 mph - N/A   Overcast
9:37 PM 53.6 °F 51.8 °F 94% 30.09 in 7.0 mi East 9.2 mph - N/A   Overcast
9:57 PM 53.6 °F 51.8 °F 94% 30.09 in 10.0 mi East 8.1 mph - N/A   Overcast
10:17 PM 53.6 °F 51.8 °F 94% 30.09 in 10.0 mi East 6.9 mph - N/A   Overcast
10:37 PM 53.6 °F 51.8 °F 94% 30.09 in 5.0 mi East 8.1 mph - N/A   Overcast
10:57 PM 53.6 °F 51.8 °F 94% 30.09 in 2.5 mi East 6.9 mph - N/A   Overcast
11:17 PM 53.6 °F 51.8 °F 94% 30.09 in 4.0 mi East 8.1 mph - N/A   Overcast
11:37 PM 53.6 °F 51.8 °F 94% 30.09 in 7.0 mi East 5.8 mph - N/A   Overcast
11:57 PM 53.6 °F 51.8 °F 94% 30.09 in 10.0 mi East 5.8 mph - N/A   Overcast